Year,Month,Day,Hour,Minute,Value (Times are PST for temperature in C)
2019,06,30,00,00,13.00
2019,06,30,00,01,13.00
2019,06,30,00,02,12.90
2019,06,30,00,03,12.90
2019,06,30,00,04,12.90
2019,06,30,00,05,12.90
2019,06,30,00,06,12.90
2019,06,30,00,07,12.90
2019,06,30,00,08,12.90
2019,06,30,00,09,12.90
2019,06,30,00,10,12.90
2019,06,30,00,11,12.90
2019,06,30,00,12,12.90
2019,06,30,00,13,12.90
2019,06,30,00,14,12.90
2019,06,30,00,15,12.90
2019,06,30,00,16,12.90
2019,06,30,00,17,12.90
2019,06,30,00,18,13.00
2019,06,30,00,19,13.00
2019,06,30,00,20,13.10
2019,06,30,00,21,13.10
2019,06,30,00,22,13.10
2019,06,30,00,23,13.10
2019,06,30,00,24,13.10
2019,06,30,00,25,13.10
2019,06,30,00,26,13.10
2019,06,30,00,27,13.10
2019,06,30,00,28,13.10
2019,06,30,00,29,13.10
2019,06,30,00,30,13.10
2019,06,30,00,31,13.10
2019,06,30,00,32,13.10
2019,06,30,00,33,13.20
2019,06,30,00,34,13.20
2019,06,30,00,35,13.20
2019,06,30,00,36,13.20
2019,06,30,00,37,13.20
2019,06,30,00,38,13.20
2019,06,30,00,39,13.20
2019,06,30,00,40,13.30
2019,06,30,00,41,13.30
2019,06,30,00,42,13.30
2019,06,30,00,43,13.30
2019,06,30,00,44,13.40
2019,06,30,00,45,13.40
2019,06,30,00,46,13.40
2019,06,30,00,47,13.40
2019,06,30,00,48,13.40
2019,06,30,00,49,13.30
2019,06,30,00,50,13.30
2019,06,30,00,51,13.30
2019,06,30,00,52,13.30
2019,06,30,00,53,13.30
2019,06,30,00,54,13.30
2019,06,30,00,55,13.30
2019,06,30,00,56,13.30
2019,06,30,00,57,13.30
2019,06,30,00,58,13.30
2019,06,30,00,59,13.20
2019,06,30,01,00,13.20
2019,06,30,01,01,13.20
2019,06,30,01,02,13.20
2019,06,30,01,03,13.10
2019,06,30,01,04,13.10
2019,06,30,01,05,13.10
2019,06,30,01,06,13.10
2019,06,30,01,07,13.10
2019,06,30,01,08,13.10
2019,06,30,01,09,13.00
2019,06,30,01,10,13.00
2019,06,30,01,11,12.90
2019,06,30,01,12,12.90
2019,06,30,01,13,12.90
2019,06,30,01,14,12.80
2019,06,30,01,15,12.80
2019,06,30,01,16,12.80
2019,06,30,01,17,12.80
2019,06,30,01,18,12.70
2019,06,30,01,19,12.70
2019,06,30,01,20,12.70
2019,06,30,01,21,12.70
2019,06,30,01,22,12.70
2019,06,30,01,23,12.70
2019,06,30,01,24,12.70
2019,06,30,01,25,12.70
2019,06,30,01,26,12.70
2019,06,30,01,27,12.80
2019,06,30,01,28,12.80
2019,06,30,01,29,12.80
2019,06,30,01,30,12.80
2019,06,30,01,31,12.80
2019,06,30,01,32,12.90
2019,06,30,01,33,12.90
2019,06,30,01,34,12.90
2019,06,30,01,35,12.90
2019,06,30,01,36,13.00
2019,06,30,01,37,13.00
2019,06,30,01,38,13.00
2019,06,30,01,39,13.00
2019,06,30,01,40,13.00
2019,06,30,01,41,13.10
2019,06,30,01,42,13.10
2019,06,30,01,43,13.10
2019,06,30,01,44,13.10
2019,06,30,01,45,13.20
2019,06,30,01,46,13.20
2019,06,30,01,47,13.20
2019,06,30,01,48,13.30
2019,06,30,01,49,13.30
2019,06,30,01,50,13.30
2019,06,30,01,51,13.30
2019,06,30,01,52,13.40
2019,06,30,01,53,13.40
2019,06,30,01,54,13.40
2019,06,30,01,55,13.40
2019,06,30,01,56,13.40
2019,06,30,01,57,13.40
2019,06,30,01,58,13.40
2019,06,30,01,59,13.40
2019,06,30,02,00,13.40
2019,06,30,02,01,13.40
2019,06,30,02,02,13.40
2019,06,30,02,03,13.40
2019,06,30,02,04,13.40
2019,06,30,02,05,13.50
2019,06,30,02,06,13.50
2019,06,30,02,07,13.50
2019,06,30,02,08,13.50
2019,06,30,02,09,13.50
2019,06,30,02,10,13.60
2019,06,30,02,11,13.60
2019,06,30,02,12,13.60
2019,06,30,02,13,13.60
2019,06,30,02,14,13.60
2019,06,30,02,15,13.60
2019,06,30,02,16,13.60
2019,06,30,02,17,13.60
2019,06,30,02,18,13.60
2019,06,30,02,19,13.60
2019,06,30,02,20,13.60
2019,06,30,02,21,13.60
2019,06,30,02,22,13.60
2019,06,30,02,23,13.60
2019,06,30,02,24,13.60
2019,06,30,02,25,13.60
2019,06,30,02,26,13.60
2019,06,30,02,27,13.60
2019,06,30,02,28,13.70
2019,06,30,02,29,13.70
2019,06,30,02,30,13.70
2019,06,30,02,31,13.70
2019,06,30,02,32,13.60
2019,06,30,02,33,13.60
2019,06,30,02,34,13.60
2019,06,30,02,35,13.60
2019,06,30,02,36,13.60
2019,06,30,02,37,13.60
2019,06,30,02,38,13.60
2019,06,30,02,39,13.60
2019,06,30,02,40,13.60
2019,06,30,02,41,13.60
2019,06,30,02,42,13.60
2019,06,30,02,43,13.60
2019,06,30,02,44,13.60
2019,06,30,02,45,13.60
2019,06,30,02,46,13.60
2019,06,30,02,47,13.60
2019,06,30,02,48,13.50
2019,06,30,02,49,13.50
2019,06,30,02,50,13.50
2019,06,30,02,51,13.50
2019,06,30,02,52,13.50
2019,06,30,02,53,13.50
2019,06,30,02,54,13.50
2019,06,30,02,55,13.50
2019,06,30,02,56,13.50
2019,06,30,02,57,13.50
2019,06,30,02,58,13.50
2019,06,30,02,59,13.50
2019,06,30,03,00,13.50
2019,06,30,03,01,13.50
2019,06,30,03,02,13.50
2019,06,30,03,03,13.50
2019,06,30,03,04,13.50
2019,06,30,03,05,13.50
2019,06,30,03,06,13.50
2019,06,30,03,07,13.50
2019,06,30,03,08,13.50
2019,06,30,03,09,13.50
2019,06,30,03,10,13.50
2019,06,30,03,11,13.50
2019,06,30,03,12,13.50
2019,06,30,03,13,13.50
2019,06,30,03,14,13.50
2019,06,30,03,15,13.50
2019,06,30,03,16,13.40
2019,06,30,03,17,13.40
2019,06,30,03,18,13.40
2019,06,30,03,19,13.40
2019,06,30,03,20,13.40
2019,06,30,03,21,13.40
2019,06,30,03,22,13.40
2019,06,30,03,23,13.40
2019,06,30,03,24,13.40
2019,06,30,03,25,13.40
2019,06,30,03,26,13.40
2019,06,30,03,27,13.40
2019,06,30,03,28,13.40
2019,06,30,03,29,13.40
2019,06,30,03,30,13.40
2019,06,30,03,31,13.40
2019,06,30,03,32,13.40
2019,06,30,03,33,13.40
2019,06,30,03,34,13.40
2019,06,30,03,35,13.40
2019,06,30,03,36,13.40
2019,06,30,03,37,13.30
2019,06,30,03,38,13.30
2019,06,30,03,39,13.30
2019,06,30,03,40,13.30
2019,06,30,03,41,13.30
2019,06,30,03,42,13.30
2019,06,30,03,43,13.20
2019,06,30,03,44,13.20
2019,06,30,03,45,13.20
2019,06,30,03,46,13.20
2019,06,30,03,47,13.20
2019,06,30,03,48,13.20
2019,06,30,03,49,13.10
2019,06,30,03,50,13.10
2019,06,30,03,51,13.10
2019,06,30,03,52,13.10
2019,06,30,03,53,13.10
2019,06,30,03,54,13.00
2019,06,30,03,55,13.00
2019,06,30,03,56,13.00
2019,06,30,03,57,13.00
2019,06,30,03,58,12.90
2019,06,30,03,59,12.90
2019,06,30,04,00,12.90
2019,06,30,04,01,12.90
2019,06,30,04,02,12.90
2019,06,30,04,03,12.80
2019,06,30,04,04,12.80
2019,06,30,04,05,12.80
2019,06,30,04,06,12.70
2019,06,30,04,07,12.70
2019,06,30,04,08,12.70
2019,06,30,04,09,12.60
2019,06,30,04,10,12.60
2019,06,30,04,11,12.60
2019,06,30,04,12,12.60
2019,06,30,04,13,12.60
2019,06,30,04,14,12.60
2019,06,30,04,15,12.50
2019,06,30,04,16,12.50
2019,06,30,04,17,12.50
2019,06,30,04,18,12.40
2019,06,30,04,19,12.40
2019,06,30,04,20,12.40
2019,06,30,04,21,12.40
2019,06,30,04,22,12.40
2019,06,30,04,23,12.40
2019,06,30,04,24,12.40
2019,06,30,04,25,12.40
2019,06,30,04,26,12.40
2019,06,30,04,27,12.40
2019,06,30,04,28,12.40
2019,06,30,04,29,12.40
2019,06,30,04,30,12.40
2019,06,30,04,31,12.40
2019,06,30,04,32,12.40
2019,06,30,04,33,12.40
2019,06,30,04,34,12.40
2019,06,30,04,35,12.40
2019,06,30,04,36,12.40
2019,06,30,04,37,12.40
2019,06,30,04,38,12.40
2019,06,30,04,39,12.40
2019,06,30,04,40,12.40
2019,06,30,04,41,12.40
2019,06,30,04,42,12.40
2019,06,30,04,43,12.40
2019,06,30,04,44,12.50
2019,06,30,04,45,12.40
2019,06,30,04,46,12.50
2019,06,30,04,47,12.50
2019,06,30,04,48,12.50
2019,06,30,04,49,12.50
2019,06,30,04,50,12.60
2019,06,30,04,51,12.50
2019,06,30,04,52,12.40
2019,06,30,04,53,12.40
2019,06,30,04,54,12.30
2019,06,30,04,55,12.30
2019,06,30,04,56,12.20
2019,06,30,04,57,12.20
2019,06,30,04,58,12.10
2019,06,30,04,59,12.10
2019,06,30,05,00,12.10
2019,06,30,05,01,12.20
2019,06,30,05,02,12.20
2019,06,30,05,03,12.20
2019,06,30,05,04,12.20
2019,06,30,05,05,12.20
2019,06,30,05,06,12.20
2019,06,30,05,07,12.20
2019,06,30,05,08,12.20
2019,06,30,05,09,12.10
2019,06,30,05,10,12.10
2019,06,30,05,11,12.10
2019,06,30,05,12,12.10
2019,06,30,05,13,12.10
2019,06,30,05,14,12.10
2019,06,30,05,15,12.10
2019,06,30,05,16,12.10
2019,06,30,05,17,12.10
2019,06,30,05,18,12.10
2019,06,30,05,19,12.10
2019,06,30,05,20,12.10
2019,06,30,05,21,12.10
2019,06,30,05,22,12.00
2019,06,30,05,23,12.00
2019,06,30,05,24,12.00
2019,06,30,05,25,12.00
2019,06,30,05,26,11.90
2019,06,30,05,27,11.90
2019,06,30,05,28,11.90
2019,06,30,05,29,11.90
2019,06,30,05,30,11.90
2019,06,30,05,31,11.90
2019,06,30,05,32,11.90
2019,06,30,05,33,11.80
2019,06,30,05,34,11.80
2019,06,30,05,35,11.80
2019,06,30,05,36,11.80
2019,06,30,05,37,11.80
2019,06,30,05,38,11.80
2019,06,30,05,39,11.80
2019,06,30,05,40,11.80
2019,06,30,05,41,11.80
2019,06,30,05,42,11.80
2019,06,30,05,43,11.80
2019,06,30,05,44,11.80
2019,06,30,05,45,11.80
2019,06,30,05,46,11.90
2019,06,30,05,47,11.90
2019,06,30,05,48,12.00
2019,06,30,05,49,12.10
2019,06,30,05,50,12.10
2019,06,30,05,51,12.10
2019,06,30,05,52,12.10
2019,06,30,05,53,12.10
2019,06,30,05,54,12.10
2019,06,30,05,55,12.10
2019,06,30,05,56,12.10
2019,06,30,05,57,12.10
2019,06,30,05,58,12.10
2019,06,30,05,59,12.00
2019,06,30,06,00,12.00
2019,06,30,06,01,12.00
2019,06,30,06,02,12.00
2019,06,30,06,03,12.00
2019,06,30,06,04,12.00
2019,06,30,06,05,12.10
2019,06,30,06,06,12.10
2019,06,30,06,07,12.10
2019,06,30,06,08,12.10
2019,06,30,06,09,12.10
2019,06,30,06,10,12.10
2019,06,30,06,11,12.00
2019,06,30,06,12,12.00
2019,06,30,06,13,12.00
2019,06,30,06,14,11.90
2019,06,30,06,15,11.80
2019,06,30,06,16,11.80
2019,06,30,06,17,11.80
2019,06,30,06,18,11.80
2019,06,30,06,19,11.80
2019,06,30,06,20,11.80
2019,06,30,06,21,11.80
2019,06,30,06,22,11.80
2019,06,30,06,23,11.80
2019,06,30,06,24,11.80
2019,06,30,06,25,11.80
2019,06,30,06,26,11.80
2019,06,30,06,27,11.90
2019,06,30,06,28,11.90
2019,06,30,06,29,11.90
2019,06,30,06,30,11.90
2019,06,30,06,31,11.90
2019,06,30,06,32,12.00
2019,06,30,06,33,12.10
2019,06,30,06,34,12.10
2019,06,30,06,35,12.20
2019,06,30,06,36,12.20
2019,06,30,06,37,12.20
2019,06,30,06,38,12.30
2019,06,30,06,39,12.30
2019,06,30,06,40,12.40
2019,06,30,06,41,12.50
2019,06,30,06,42,12.50
2019,06,30,06,43,12.50
2019,06,30,06,44,12.60
2019,06,30,06,45,12.60
2019,06,30,06,46,12.60
2019,06,30,06,47,12.60
2019,06,30,06,48,12.60
2019,06,30,06,49,12.70
2019,06,30,06,50,12.70
2019,06,30,06,51,12.80
2019,06,30,06,52,12.80
2019,06,30,06,53,12.80
2019,06,30,06,54,12.90
2019,06,30,06,55,12.90
2019,06,30,06,56,13.00
2019,06,30,06,57,13.00
2019,06,30,06,58,13.10
2019,06,30,06,59,13.10
2019,06,30,07,00,13.20
2019,06,30,07,01,13.20
2019,06,30,07,02,13.20
2019,06,30,07,03,13.20
2019,06,30,07,04,13.20
2019,06,30,07,05,13.30
2019,06,30,07,06,13.30
2019,06,30,07,07,13.30
2019,06,30,07,08,13.40
2019,06,30,07,09,13.40
2019,06,30,07,10,13.40
2019,06,30,07,11,13.40
2019,06,30,07,12,13.40
2019,06,30,07,13,13.50
2019,06,30,07,14,13.50
2019,06,30,07,15,13.60
2019,06,30,07,16,13.60
2019,06,30,07,17,13.70
2019,06,30,07,18,13.70
2019,06,30,07,19,13.80
2019,06,30,07,20,13.80
2019,06,30,07,21,13.90
2019,06,30,07,22,13.90
2019,06,30,07,23,14.00
2019,06,30,07,24,14.10
2019,06,30,07,25,14.20
2019,06,30,07,26,14.20
2019,06,30,07,27,14.30
2019,06,30,07,28,14.30
2019,06,30,07,29,14.30
2019,06,30,07,30,14.40
2019,06,30,07,31,14.40
2019,06,30,07,32,14.50
2019,06,30,07,33,14.50
2019,06,30,07,34,14.60
2019,06,30,07,35,14.60
2019,06,30,07,36,14.70
2019,06,30,07,37,14.70
2019,06,30,07,38,14.80
2019,06,30,07,39,14.80
2019,06,30,07,40,14.80
2019,06,30,07,41,14.90
2019,06,30,07,42,14.90
2019,06,30,07,43,14.90
2019,06,30,07,44,14.90
2019,06,30,07,45,15.00
2019,06,30,07,46,15.00
2019,06,30,07,47,15.10
2019,06,30,07,48,15.10
2019,06,30,07,49,15.20
2019,06,30,07,50,15.20
2019,06,30,07,51,15.20
2019,06,30,07,52,15.30
2019,06,30,07,53,15.30
2019,06,30,07,54,15.40
2019,06,30,07,55,15.50
2019,06,30,07,56,15.50
2019,06,30,07,57,15.60
2019,06,30,07,58,15.60
2019,06,30,07,59,15.60
2019,06,30,08,00,15.70
2019,06,30,08,01,15.80
2019,06,30,08,02,15.80
2019,06,30,08,03,15.90
2019,06,30,08,04,16.00
2019,06,30,08,05,16.10
2019,06,30,08,06,16.10
2019,06,30,08,07,16.20
2019,06,30,08,08,16.30
2019,06,30,08,09,16.30
2019,06,30,08,10,16.40
2019,06,30,08,11,16.40
2019,06,30,08,12,16.40
2019,06,30,08,13,16.40
2019,06,30,08,14,16.40
2019,06,30,08,15,16.40
2019,06,30,08,16,16.30
2019,06,30,08,17,16.30
2019,06,30,08,18,16.30
2019,06,30,08,19,16.30
2019,06,30,08,20,16.20
2019,06,30,08,21,16.20
2019,06,30,08,22,16.20
2019,06,30,08,23,16.20
2019,06,30,08,24,16.30
2019,06,30,08,25,16.30
2019,06,30,08,26,16.30
2019,06,30,08,27,16.40
2019,06,30,08,28,16.40
2019,06,30,08,29,16.40
2019,06,30,08,30,16.40
2019,06,30,08,31,16.40
2019,06,30,08,32,16.40
2019,06,30,08,33,16.40
2019,06,30,08,34,16.40
2019,06,30,08,35,16.40
2019,06,30,08,36,16.40
2019,06,30,08,37,16.40
2019,06,30,08,38,16.30
2019,06,30,08,39,16.30
2019,06,30,08,40,16.30
2019,06,30,08,41,16.30
2019,06,30,08,42,16.30
2019,06,30,08,43,16.30
2019,06,30,08,44,16.30
2019,06,30,08,45,16.40
2019,06,30,08,46,16.40
2019,06,30,08,47,16.50
2019,06,30,08,48,16.60
2019,06,30,08,49,16.70
2019,06,30,08,50,16.80
2019,06,30,08,51,16.90
2019,06,30,08,52,17.00
2019,06,30,08,53,17.00
2019,06,30,08,54,17.10
2019,06,30,08,55,17.00
2019,06,30,08,56,17.00
2019,06,30,08,57,17.00
2019,06,30,08,58,17.00
2019,06,30,08,59,17.00
2019,06,30,09,00,17.00
2019,06,30,09,01,17.00
2019,06,30,09,02,17.00
2019,06,30,09,03,17.10
2019,06,30,09,04,17.10
2019,06,30,09,05,17.20
2019,06,30,09,06,17.20
2019,06,30,09,07,17.30
2019,06,30,09,08,17.30
2019,06,30,09,09,17.30
2019,06,30,09,10,17.30
2019,06,30,09,11,17.30
2019,06,30,09,12,17.30
2019,06,30,09,13,17.40
2019,06,30,09,14,17.40
2019,06,30,09,15,17.50
2019,06,30,09,16,17.60
2019,06,30,09,17,17.60
2019,06,30,09,18,17.60
2019,06,30,09,19,17.70
2019,06,30,09,20,17.70
2019,06,30,09,21,17.80
2019,06,30,09,22,17.80
2019,06,30,09,23,17.80
2019,06,30,09,24,17.80
2019,06,30,09,25,17.80
2019,06,30,09,26,17.80
2019,06,30,09,27,17.90
2019,06,30,09,28,17.90
2019,06,30,09,29,17.90
2019,06,30,09,30,18.00
2019,06,30,09,31,18.00
2019,06,30,09,32,18.10
2019,06,30,09,33,18.10
2019,06,30,09,34,18.20
2019,06,30,09,35,18.20
2019,06,30,09,36,18.20
2019,06,30,09,37,18.10
2019,06,30,09,38,18.10
2019,06,30,09,39,18.10
2019,06,30,09,40,18.10
2019,06,30,09,41,18.00
2019,06,30,09,42,17.90
2019,06,30,09,43,17.80
2019,06,30,09,44,17.90
2019,06,30,09,45,17.90
2019,06,30,09,46,17.90
2019,06,30,09,47,17.90
2019,06,30,09,48,17.90
2019,06,30,09,49,17.90
2019,06,30,09,50,17.90
2019,06,30,09,51,17.90
2019,06,30,09,52,17.90
2019,06,30,09,53,17.80
2019,06,30,09,54,17.80
2019,06,30,09,55,17.80
2019,06,30,09,56,17.80
2019,06,30,09,57,17.80
2019,06,30,09,58,17.80
2019,06,30,09,59,17.80
2019,06,30,10,00,17.90
2019,06,30,10,01,18.00
2019,06,30,10,02,18.10
2019,06,30,10,03,18.10
2019,06,30,10,04,18.20
2019,06,30,10,05,18.30
2019,06,30,10,06,18.30
2019,06,30,10,07,18.30
2019,06,30,10,08,18.20
2019,06,30,10,09,18.00
2019,06,30,10,10,17.90
2019,06,30,10,11,17.90
2019,06,30,10,12,17.90
2019,06,30,10,13,17.90
2019,06,30,10,14,17.90
2019,06,30,10,15,17.90
2019,06,30,10,16,18.00
2019,06,30,10,17,18.00
2019,06,30,10,18,18.00
2019,06,30,10,19,18.00
2019,06,30,10,20,18.00
2019,06,30,10,21,18.10
2019,06,30,10,22,18.10
2019,06,30,10,23,18.00
2019,06,30,10,24,18.00
2019,06,30,10,25,18.00
2019,06,30,10,26,18.00
2019,06,30,10,27,18.10
2019,06,30,10,28,18.10
2019,06,30,10,29,18.00
2019,06,30,10,30,18.00
2019,06,30,10,31,17.90
2019,06,30,10,32,17.90
2019,06,30,10,33,17.90
2019,06,30,10,34,17.90
2019,06,30,10,35,17.90
2019,06,30,10,36,17.90
2019,06,30,10,37,18.00
2019,06,30,10,38,18.00
2019,06,30,10,39,18.20
2019,06,30,10,40,18.30
2019,06,30,10,41,18.40
2019,06,30,10,42,18.50
2019,06,30,10,43,18.60
2019,06,30,10,44,18.60
2019,06,30,10,45,18.60
2019,06,30,10,46,18.50
2019,06,30,10,47,18.50
2019,06,30,10,48,18.40
2019,06,30,10,49,18.20
2019,06,30,10,50,18.10
2019,06,30,10,51,18.10
2019,06,30,10,52,18.10
2019,06,30,10,53,18.20
2019,06,30,10,54,18.30
2019,06,30,10,55,18.30
2019,06,30,10,56,18.30
2019,06,30,10,57,18.30
2019,06,30,10,58,18.30
2019,06,30,10,59,18.40
2019,06,30,11,00,18.40
2019,06,30,11,01,18.40
2019,06,30,11,02,18.40
2019,06,30,11,03,18.50
2019,06,30,11,04,18.50
2019,06,30,11,05,18.60
2019,06,30,11,06,18.60
2019,06,30,11,07,18.60
2019,06,30,11,08,18.60
2019,06,30,11,09,18.70
2019,06,30,11,10,18.70
2019,06,30,11,11,18.70
2019,06,30,11,12,18.70
2019,06,30,11,13,18.70
2019,06,30,11,14,18.70
2019,06,30,11,15,18.70
2019,06,30,11,16,18.70
2019,06,30,11,17,18.70
2019,06,30,11,18,18.70
2019,06,30,11,19,18.70
2019,06,30,11,20,18.70
2019,06,30,11,21,18.70
2019,06,30,11,22,18.70
2019,06,30,11,23,18.60
2019,06,30,11,24,18.60
2019,06,30,11,25,18.60
2019,06,30,11,26,18.70
2019,06,30,11,27,18.80
2019,06,30,11,28,18.90
2019,06,30,11,29,19.00
2019,06,30,11,30,19.10
2019,06,30,11,31,19.20
2019,06,30,11,32,19.30
2019,06,30,11,33,19.20
2019,06,30,11,34,19.20
2019,06,30,11,35,19.10
2019,06,30,11,36,19.10
2019,06,30,11,37,19.10
2019,06,30,11,38,19.00
2019,06,30,11,39,19.10
2019,06,30,11,40,19.10
2019,06,30,11,41,19.10
2019,06,30,11,42,19.10
2019,06,30,11,43,19.10
2019,06,30,11,44,19.20
2019,06,30,11,45,19.20
2019,06,30,11,46,19.30
2019,06,30,11,47,19.30
2019,06,30,11,48,19.30
2019,06,30,11,49,19.30
2019,06,30,11,50,19.30
2019,06,30,11,51,19.30
2019,06,30,11,52,19.30
2019,06,30,11,53,19.30
2019,06,30,11,54,19.20
2019,06,30,11,55,19.20
2019,06,30,11,56,19.10
2019,06,30,11,57,19.00
2019,06,30,11,58,19.00
2019,06,30,11,59,18.90
2019,06,30,12,00,18.80
2019,06,30,12,01,18.80
2019,06,30,12,02,18.80
2019,06,30,12,03,18.90
2019,06,30,12,04,18.90
2019,06,30,12,05,18.80
2019,06,30,12,06,18.70
2019,06,30,12,07,18.70
2019,06,30,12,08,18.60
2019,06,30,12,09,18.60
2019,06,30,12,10,18.50
2019,06,30,12,11,18.60
2019,06,30,12,12,18.60
2019,06,30,12,13,18.60
2019,06,30,12,14,18.60
2019,06,30,12,15,18.60
2019,06,30,12,16,18.60
2019,06,30,12,17,18.70
2019,06,30,12,18,18.80
2019,06,30,12,19,18.80
2019,06,30,12,20,18.80
2019,06,30,12,21,18.70
2019,06,30,12,22,18.70
2019,06,30,12,23,18.70
2019,06,30,12,24,18.80
2019,06,30,12,25,18.80
2019,06,30,12,26,18.80
2019,06,30,12,27,18.90
2019,06,30,12,28,19.00
2019,06,30,12,29,19.10
2019,06,30,12,30,19.10
2019,06,30,12,31,19.10
2019,06,30,12,32,19.10
2019,06,30,12,33,19.20
2019,06,30,12,34,19.30
2019,06,30,12,35,19.30
2019,06,30,12,36,19.40
2019,06,30,12,37,19.40
2019,06,30,12,38,19.40
2019,06,30,12,39,19.40
2019,06,30,12,40,19.50
2019,06,30,12,41,19.50
2019,06,30,12,42,19.50
2019,06,30,12,43,19.50
2019,06,30,12,44,19.50
2019,06,30,12,45,19.30
2019,06,30,12,46,19.30
2019,06,30,12,47,19.30
2019,06,30,12,48,19.10
2019,06,30,12,49,19.10
2019,06,30,12,50,19.10
2019,06,30,12,51,19.20
2019,06,30,12,52,19.20
2019,06,30,12,53,19.20
2019,06,30,12,54,19.30
2019,06,30,12,55,19.40
2019,06,30,12,56,19.50
2019,06,30,12,57,19.60
2019,06,30,12,58,19.70
2019,06,30,12,59,19.70
2019,06,30,13,00,19.80
2019,06,30,13,01,19.80
2019,06,30,13,02,19.80
2019,06,30,13,03,19.70
2019,06,30,13,04,19.70
2019,06,30,13,05,19.70
2019,06,30,13,06,19.70
2019,06,30,13,07,19.80
2019,06,30,13,08,19.80
2019,06,30,13,09,19.70
2019,06,30,13,10,19.80
2019,06,30,13,11,19.80
2019,06,30,13,12,19.90
2019,06,30,13,13,19.80
2019,06,30,13,14,19.80
2019,06,30,13,15,19.90
2019,06,30,13,16,20.00
2019,06,30,13,17,20.10
2019,06,30,13,18,20.10
2019,06,30,13,19,20.00
2019,06,30,13,20,19.90
2019,06,30,13,21,19.80
2019,06,30,13,22,19.80
2019,06,30,13,23,19.80
2019,06,30,13,24,19.80
2019,06,30,13,25,19.70
2019,06,30,13,26,19.70
2019,06,30,13,27,19.70
2019,06,30,13,28,19.70
2019,06,30,13,29,19.70
2019,06,30,13,30,19.60
2019,06,30,13,31,19.60
2019,06,30,13,32,19.60
2019,06,30,13,33,19.70
2019,06,30,13,34,19.70
2019,06,30,13,35,19.80
2019,06,30,13,36,19.90
2019,06,30,13,37,19.90
2019,06,30,13,38,19.90
2019,06,30,13,39,19.90
2019,06,30,13,40,19.90
2019,06,30,13,41,19.80
2019,06,30,13,42,19.80
2019,06,30,13,43,19.80
2019,06,30,13,44,19.70
2019,06,30,13,45,19.70
2019,06,30,13,46,19.70
2019,06,30,13,47,19.70
2019,06,30,13,48,19.70
2019,06,30,13,49,19.70
2019,06,30,13,50,19.70
2019,06,30,13,51,19.70
2019,06,30,13,52,19.80
2019,06,30,13,53,19.90
2019,06,30,13,54,20.00
2019,06,30,13,55,19.90
2019,06,30,13,56,19.90
2019,06,30,13,57,19.80
2019,06,30,13,58,19.70
2019,06,30,13,59,19.70
2019,06,30,14,00,19.70
2019,06,30,14,01,19.70
2019,06,30,14,02,19.80
2019,06,30,14,03,19.90
2019,06,30,14,04,19.80
2019,06,30,14,05,19.70
2019,06,30,14,06,19.60
2019,06,30,14,07,19.60
2019,06,30,14,08,19.60
2019,06,30,14,09,19.60
2019,06,30,14,10,19.60
2019,06,30,14,11,19.60
2019,06,30,14,12,19.60
2019,06,30,14,13,19.60
2019,06,30,14,14,19.60
2019,06,30,14,15,19.60
2019,06,30,14,16,19.70
2019,06,30,14,17,19.70
2019,06,30,14,18,19.70
2019,06,30,14,19,19.60
2019,06,30,14,20,19.60
2019,06,30,14,21,19.60
2019,06,30,14,22,19.50
2019,06,30,14,23,19.30
2019,06,30,14,24,19.20
2019,06,30,14,25,19.20
2019,06,30,14,26,19.30
2019,06,30,14,27,19.30
2019,06,30,14,28,19.20
2019,06,30,14,29,19.20
2019,06,30,14,30,19.20
2019,06,30,14,31,19.20
2019,06,30,14,32,19.20
2019,06,30,14,33,19.30
2019,06,30,14,34,19.30
2019,06,30,14,35,19.30
2019,06,30,14,36,19.30
2019,06,30,14,37,19.30
2019,06,30,14,38,19.30
2019,06,30,14,39,19.30
2019,06,30,14,40,19.30
2019,06,30,14,41,19.20
2019,06,30,14,42,19.20
2019,06,30,14,43,19.30
2019,06,30,14,44,19.40
2019,06,30,14,45,19.40
2019,06,30,14,46,19.50
2019,06,30,14,47,19.50
2019,06,30,14,48,19.60
2019,06,30,14,49,19.60
2019,06,30,14,50,19.60
2019,06,30,14,51,19.60
2019,06,30,14,52,19.60
2019,06,30,14,53,19.60
2019,06,30,14,54,19.80
2019,06,30,14,55,19.90
2019,06,30,14,56,19.90
2019,06,30,14,57,19.90
2019,06,30,14,58,19.90
2019,06,30,14,59,19.80
2019,06,30,15,00,19.80
2019,06,30,15,01,19.80
2019,06,30,15,02,19.80
2019,06,30,15,03,19.90
2019,06,30,15,04,19.90
2019,06,30,15,05,19.90
2019,06,30,15,06,19.80
2019,06,30,15,07,19.80
2019,06,30,15,08,19.70
2019,06,30,15,09,19.70
2019,06,30,15,10,19.60
2019,06,30,15,11,19.60
2019,06,30,15,12,19.60
2019,06,30,15,13,19.60
2019,06,30,15,14,19.60
2019,06,30,15,15,19.70
2019,06,30,15,16,19.80
2019,06,30,15,17,19.90
2019,06,30,15,18,19.90
2019,06,30,15,19,20.00
2019,06,30,15,20,19.90
2019,06,30,15,21,19.80
2019,06,30,15,22,19.80
2019,06,30,15,23,19.80
2019,06,30,15,24,19.80
2019,06,30,15,25,19.80
2019,06,30,15,26,19.80
2019,06,30,15,27,19.80
2019,06,30,15,28,19.80
2019,06,30,15,29,19.80
2019,06,30,15,30,19.70
2019,06,30,15,31,19.80
2019,06,30,15,32,19.70
2019,06,30,15,33,19.80
2019,06,30,15,34,19.80
2019,06,30,15,35,19.80
2019,06,30,15,36,19.80
2019,06,30,15,37,19.80
2019,06,30,15,38,19.80
2019,06,30,15,39,19.90
2019,06,30,15,40,19.90
2019,06,30,15,41,19.90
2019,06,30,15,42,20.00
2019,06,30,15,43,20.00
2019,06,30,15,44,20.10
2019,06,30,15,45,20.10
2019,06,30,15,46,20.10
2019,06,30,15,47,20.00
2019,06,30,15,48,20.10
2019,06,30,15,49,20.10
2019,06,30,15,50,20.00
2019,06,30,15,51,19.90
2019,06,30,15,52,19.90
2019,06,30,15,53,19.90
2019,06,30,15,54,19.90
2019,06,30,15,55,20.00
2019,06,30,15,56,20.10
2019,06,30,15,57,20.10
2019,06,30,15,58,20.10
2019,06,30,15,59,20.00
2019,06,30,16,00,19.90
2019,06,30,16,01,19.90
2019,06,30,16,02,19.90
2019,06,30,16,03,19.80
2019,06,30,16,04,19.70
2019,06,30,16,05,19.60
2019,06,30,16,06,19.50
2019,06,30,16,07,19.50
2019,06,30,16,08,19.40
2019,06,30,16,09,19.40
2019,06,30,16,10,19.40
2019,06,30,16,11,19.40
2019,06,30,16,12,19.40
2019,06,30,16,13,19.40
2019,06,30,16,14,19.30
2019,06,30,16,15,19.30
2019,06,30,16,16,19.30
2019,06,30,16,17,19.30
2019,06,30,16,18,19.30
2019,06,30,16,19,19.30
2019,06,30,16,20,19.40
2019,06,30,16,21,19.50
2019,06,30,16,22,19.60
2019,06,30,16,23,19.60
2019,06,30,16,24,19.70
2019,06,30,16,25,19.70
2019,06,30,16,26,19.70
2019,06,30,16,27,19.70
2019,06,30,16,28,19.60
2019,06,30,16,29,19.60
2019,06,30,16,30,19.60
2019,06,30,16,31,19.60
2019,06,30,16,32,19.60
2019,06,30,16,33,19.70
2019,06,30,16,34,19.70
2019,06,30,16,35,19.70
2019,06,30,16,36,19.70
2019,06,30,16,37,19.80
2019,06,30,16,38,19.80
2019,06,30,16,39,19.80
2019,06,30,16,40,19.80
2019,06,30,16,41,19.80
2019,06,30,16,42,19.80
2019,06,30,16,43,19.80
2019,06,30,16,44,19.80
2019,06,30,16,45,19.80
2019,06,30,16,46,19.80
2019,06,30,16,47,19.70
2019,06,30,16,48,19.70
2019,06,30,16,49,19.70
2019,06,30,16,50,19.60
2019,06,30,16,51,19.60
2019,06,30,16,52,19.60
2019,06,30,16,53,19.60
2019,06,30,16,54,19.60
2019,06,30,16,55,19.60
2019,06,30,16,56,19.50
2019,06,30,16,57,19.60
2019,06,30,16,58,19.60
2019,06,30,16,59,19.50
2019,06,30,17,00,19.40
2019,06,30,17,01,19.30
2019,06,30,17,02,19.30
2019,06,30,17,03,19.20
2019,06,30,17,04,19.30
2019,06,30,17,05,19.30
2019,06,30,17,06,19.40
2019,06,30,17,07,19.40
2019,06,30,17,08,19.40
2019,06,30,17,09,19.40
2019,06,30,17,10,19.50
2019,06,30,17,11,19.60
2019,06,30,17,12,19.70
2019,06,30,17,13,19.70
2019,06,30,17,14,19.70
2019,06,30,17,15,19.70
2019,06,30,17,16,19.70
2019,06,30,17,17,19.70
2019,06,30,17,18,19.60
2019,06,30,17,19,19.60